Tracking 28052 objects as of 22-Sep-2023
HD Live streaming from Space Station
objects crossing your sky now

SL-3 R/B

Track SL-3 R/B now!
10-day predictions


NORAD ID: 6660
Int'l Code: 1973-034B
Perigee: 845.8 km
Apogee: 914.8 km
Inclination: 81.2 °
Period: 102.4 minutes
Semi major axis: 7251 km
RCS: 7.6236 m2 (large)
Launch date: May 29, 1973
Source: Commonwealth of Independent States (former USSR) (CIS)
Launch site: PLESETSK MISSILE AND SPACE COMPLEX (PKMTR)

Note: This is a ROCKET BODY
Your satellite tracking list
Your tracking list is empty




NASA's NSSDC Master Catalog

Two Line Element Set (TLE):
1 06660U 73034B   23264.88204591  .00000216  00000-0  12288-3 0  9992
2 06660  81.2302 310.8443 0047531 141.4642 218.9936 14.05981901579569
Source of the keplerian elements: AFSPC